Dewpoint
71 73 75 77 77 77 77 76 77 76 76 76 76 75 75 76 76 76 76 76 75 76 75 75 75 76 75 74 74 74 74 74 74 73 73 74 74 73 72 71 71 68 73
71 72 76 77 78 77 77 77 77 77 76 76 77 76 75 75 76 76 75 75 73 74 75 75 75 74 74 75 74 74 74 74 74 73 73 73 73 72 72 74 73 71 74
70 70 72 77 77 77 77 76 76 76 76 76 76 76 76 75 75 76 75 74 74 73 74 75 74 75 74 74 74 73 73 73 73 73 74 69 67 72 72 73 72 72 72
68 67 69 77 77 76 76 76 76 75 75 76 75 76 76 76 76 76 74 74 75 74 74 74 75 73 74 74 74 74 73 72 72 73 69 65 66 73 74 71 71 73 73
67 67 72 77 76 75 76 77 76 76 76 76 76 76 75 74 72 71 70 72 73 73 74 74 73 73 73 72 72 71 71 72 73 72 64 62 66 69 71 70 73 72 72
67 65 75 77 76 76 77 76 76 76 76 75 74 73 72 72 74 74 73 72 73 73 74 74 73 72 72 72 71 71 72 73 74 71 63 65 65 71 72 72 72 72 68
64 66 71 77 76 76 76 76 76 76 76 76 74 73 72 75 76 74 73 74 74 74 74 73 72 71 70 70 70 71 72 73 70 63 64 64 69 72 72 72 74 71 69
61 62 68 75 76 76 76 76 76 76 76 76 73 73 72 73 74 75 74 73 73 73 72 72 71 71 71 71 72 72 73 73 68 62 62 70 72 72 71 71 71 71 71
60 61 66 70 74 76 76 76 76 76 76 75 75 74 73 73 72 72 71 71 71 72 72 72 72 72 72 72 72 72 73 73 68 65 60 71 74 73 72 72 72 72 72
68 63 66 68 70 70 72 75 74 74 74 75 74 74 74 74 74 74 74 72 72 72 72 72 72 73 73 73 73 72 73 74 65 63 65 71 76 74 74 73 74 74 73
66 66 67 67 70 72 70 72 73 74 74 74 74 74 75 73 72 73 73 72 72 72 73 73 73 73 75 75 75 74 72 63 61 61 66 75 75 74 74 75 74 75 74
66 66 65 67 68 70 64 69 69 68 70 72 74 71 69 71 69 68 71 73 73 74 74 74 75 75 74 70 69 75 68 67 64 66 68 76 74 74 74 75 76 76 75
64 64 66 67 69 68 70 66 66 66 67 70 72 73 72 71 72 75 74 73 71 75 70 70 72 72 71 69 71 67 68 65 65 69 71 74 75 74 74 75 76 75 75
63 63 65 67 70 68 68 66 64 63 65 65 66 71 71 68 70 71 72 72 73 70 72 68 70 70 69 69 68 67 68 69 67 66 67 76 75 74 73 75 76 77 76
63 64 65 68 72 70 72 69 68 66 64 64 65 68 68 68 70 74 72 66 65 62 65 67 67 68 67 65 66 65 65 67 67 65 65 76 76 75 75 74 75 77 77
64 65 66 67 71 71 72 74 72 70 66 65 61 64 71 70 76 70 70 68 63 63 65 66 69 68 65 62 61 61 62 61 65 70 69 71 76 76 76 75 75 76 77
65 66 66 68 68 71 72 71 71 67 63 63 64 70 72 74 75 74 71 65 63 68 71 70 69 65 63 62 63 61 61 60 58 63 64 68 71 76 76 76 76 75 75
67 68 69 67 68 70 72 70 67 64 65 66 65 67 72 73 74 74 67 64 69 68 65 64 64 64 63 64 65 60 61 61 60 60 58 60 63 63 73 76 75 74 74
68 70 70 70 69 71 72 71 70 70 70 67 66 72 74 71 70 71 66 67 70 64 64 66 65 67 65 63 60 59 61 58 59 55 60 61 63 63 61 73 75 75 75
68 69 71 71 72 73 72 73 69 68 69 68 67 67 72 70 70 70 67 69 70 64 64 69 71 67 64 62 60 59 60 58 60 59 58 56 55 59 59 65 65 66 75
67 70 72 72 76 72 71 69 69 66 67 66 67 70 71 71 70 72 68 68 69 69 73 73 70 70 59 61 59 57 56 55 60 58 55 57 59 60 61 61 61 61 64
65 69 72 73 75 74 71 71 69 68 65 65 66 70 72 72 72 72 73 72 72 69 74 74 72 65 59 59 59 59 55 52 56 56 58 56 59 59 59 60 63 66 64
64 67 71 74 75 76 76 72 71 71 70 67 67 68 70 72 73 74 74 74 75 74 67 73 69 68 59 60 63 61 56 53 57 57 60 55 60 56 57 58 60 63 65
62 65 71 74 76 76 78 73 76 69 67 66 68 67 68 71 72 73 75 75 76 73 74 70 67 68 69 61 59 59 68 63 58 55 54 56 58 59 61 53 52 56 61
61 62 67 74 77 77 78 76 73 73 68 67 66 74 77 75 74 74 75 75 76 73 75 72 69 69 64 63 61 63 64 58 62 53 50 51 52 50 49 51 51 52 59
60 61 64 74 78 78 78 78 78 77 75 68 69 67 67 69 71 76 74 76 76 73 72 69 68 68 69 68 66 65 57 54 52 51 50 53 51 52 50 52 53 55 56
Lifted_Index
-2 -3 -4 -5 -6 -5 -5 -5 -5 -6 -6 -6 -6 -5 -6 -6 -6 -6 -6 -6 -5 -5 -5 -5 -5 -5 -5 -5 -5 -5 -5 -5 -5 -5 -4 -4 -4 -4 -4 -3 -3 -3 -4
-2 -3 -4 -5 -6 -6 -5 -6 -6 -6 -6 -6 -6 -6 -6 -6 -6 -6 -6 -5 -5 -5 -5 -5 -5 -5 -5 -5 -5 -5 -5 -5 -5 -5 -5 -4 -4 -4 -4 -4 -3 -3 -4
-2 -3 -4 -5 -5 -6 -6 -6 -6 -6 -6 -6 -6 -6 -6 -6 -6 -6 -6 -5 -5 -5 -5 -5 -5 -5 -5 -5 -5 -5 -5 -5 -5 -5 -4 -4 -3 -4 -4 -4 -4 -4 -4
-2 -3 -4 -5 -5 -5 -5 -5 -6 -6 -6 -6 -6 -6 -6 -6 -6 -5 -5 -5 -5 -5 -5 -5 -5 -5 -5 -5 -5 -5 -5 -5 -5 -4 -4 -3 -3 -4 -4 -4 -4 -4 -4
-2 -3 -4 -5 -5 -5 -5 -6 -6 -6 -6 -6 -6 -6 -6 -5 -5 -4 -4 -4 -5 -5 -5 -5 -5 -5 -5 -5 -4 -4 -5 -5 -5 -4 -3 -2 -2 -3 -4 -4 -4 -4 -4
-2 -3 -4 -5 -5 -5 -6 -6 -6 -6 -6 -6 -5 -5 -5 -5 -5 -5 -5 -5 -5 -5 -6 -5 -5 -5 -5 -4 -4 -4 -4 -5 -5 -4 -3 -2 -2 -3 -4 -4 -5 -4 -3
-1 -2 -4 -5 -5 -6 -6 -6 -6 -6 -6 -6 -5 -4 -4 -5 -6 -6 -6 -6 -6 -6 -6 -6 -5 -5 -5 -4 -4 -4 -4 -4 -4 -3 -3 -3 -3 -3 -4 -4 -4 -4 -3
-1 -1 -2 -4 -5 -6 -6 -7 -7 -7 -7 -6 -5 -5 -5 -5 -6 -6 -5 -5 -6 -6 -6 -6 -6 -6 -5 -5 -5 -5 -5 -4 -4 -3 -3 -3 -3 -3 -4 -4 -4 -4 -3
-1 -1 -2 -3 -5 -5 -6 -7 -7 -7 -6 -6 -6 -5 -5 -5 -5 -5 -5 -5 -5 -6 -6 -6 -6 -6 -6 -5 -5 -5 -5 -4 -4 -3 -3 -4 -4 -4 -4 -4 -4 -4 -4
-2 -2 -2 -3 -4 -5 -5 -6 -6 -6 -6 -6 -6 -6 -6 -5 -5 -5 -5 -5 -6 -6 -6 -6 -6 -6 -6 -6 -5 -5 -4 -4 -4 -3 -4 -4 -5 -5 -5 -5 -5 -5 -5
-3 -3 -3 -3 -4 -4 -4 -4 -5 -5 -5 -5 -6 -6 -6 -5 -5 -5 -5 -5 -6 -6 -6 -6 -6 -6 -6 -6 -5 -5 -5 -4 -3 -4 -4 -4 -4 -5 -5 -5 -5 -5 -5
-3 -3 -3 -4 -4 -4 -4 -3 -4 -4 -5 -5 -5 -5 -5 -5 -5 -5 -5 -5 -6 -6 -6 -6 -6 -6 -6 -5 -5 -5 -5 -4 -4 -4 -4 -4 -4 -5 -5 -5 -5 -5 -5
-2 -2 -3 -3 -4 -4 -4 -3 -3 -3 -4 -4 -5 -5 -5 -5 -5 -5 -5 -5 -5 -5 -5 -5 -5 -5 -5 -5 -5 -5 -5 -4 -4 -4 -4 -5 -4 -5 -5 -6 -6 -6 -6
-2 -2 -2 -3 -3 -4 -4 -4 -3 -3 -3 -3 -4 -4 -4 -5 -5 -5 -5 -5 -5 -5 -4 -4 -4 -4 -4 -4 -4 -4 -4 -4 -4 -4 -4 -5 -5 -5 -5 -6 -6 -6 -6
-2 -2 -2 -3 -3 -3 -4 -4 -4 -3 -3 -2 -2 -3 -4 -4 -5 -5 -5 -4 -3 -3 -3 -3 -3 -3 -3 -3 -2 -2 -2 -3 -3 -4 -4 -5 -5 -5 -5 -5 -6 -7 -7
-2 -2 -2 -2 -3 -3 -4 -4 -4 -3 -3 -2 -2 -3 -4 -5 -5 -5 -5 -4 -3 -2 -3 -3 -3 -3 -2 -2 -1 -1 -1 -1 -2 -3 -4 -4 -5 -5 -5 -5 -5 -6 -7
-3 -3 -3 -3 -2 -3 -3 -4 -4 -3 -2 -2 -2 -3 -5 -5 -6 -5 -5 -4 -3 -3 -3 -3 -3 -3 -2 -2 -1 -1 -0 -0 -0 -1 -2 -3 -4 -4 -5 -5 -5 -5 -5
-3 -3 -3 -3 -3 -3 -3 -3 -3 -2 -2 -3 -3 -4 -5 -5 -5 -5 -4 -4 -3 -3 -3 -3 -3 -3 -2 -2 -1 -1 -0 0 1 0 -0 -1 -2 -3 -3 -4 -4 -4 -4
-4 -4 -4 -4 -4 -4 -4 -4 -3 -3 -3 -3 -3 -4 -5 -5 -5 -5 -4 -4 -4 -3 -3 -3 -3 -3 -2 -2 -1 -0 0 0 1 1 0 0 -0 -1 -2 -2 -3 -3 -3
-4 -4 -4 -4 -4 -4 -4 -4 -4 -4 -4 -4 -4 -4 -5 -5 -5 -4 -4 -4 -4 -4 -4 -4 -4 -3 -2 -1 -1 0 1 1 0 0 1 1 1 0 -0 -1 -2 -2 -3
-3 -4 -4 -4 -5 -5 -5 -4 -4 -4 -3 -3 -4 -4 -5 -5 -5 -5 -5 -5 -5 -5 -5 -6 -5 -3 -1 -0 0 0 1 1 0 0 1 1 1 0 0 0 -0 -1 -1
-3 -3 -4 -4 -5 -5 -5 -4 -4 -4 -3 -3 -3 -4 -5 -5 -6 -6 -6 -6 -6 -6 -6 -6 -5 -2 -0 1 0 0 0 1 0 0 0 1 1 1 1 1 1 1 0
-2 -3 -4 -4 -5 -5 -5 -5 -4 -4 -4 -4 -4 -4 -5 -5 -6 -6 -7 -7 -7 -7 -6 -6 -4 -2 -0 0 0 -0 -0 0 0 0 1 1 1 1 2 2 2 2 2
-2 -2 -3 -4 -5 -6 -6 -5 -5 -4 -4 -4 -4 -4 -5 -5 -6 -7 -7 -8 -8 -8 -6 -5 -4 -2 -1 0 0 0 -0 -0 0 1 1 2 2 2 3 3 4 4 4
-1 -2 -3 -5 -6 -7 -7 -6 -6 -5 -5 -4 -4 -5 -5 -6 -6 -7 -8 -8 -8 -7 -6 -5 -3 -2 -1 -0 0 0 1 1 2 2 3 3 3 3 4 4 5 4 4
-1 -2 -3 -5 -7 -7 -7 -7 -7 -6 -5 -5 -5 -5 -6 -6 -7 -7 -8 -8 -7 -6 -5 -4 -2 -1 -1 -1 -1 0 1 2 3 4 4 4 3 3 4 4 5 4 4